CW2664 Weather Reports


time (UTC)temp
F
wind
direction
speed
knots
gust
knots
rain 1hr
in
rain 24hr
in
rain mn
in
humidity
%
barometer
mb
20260506070148 59 210 1.7 3.5 0.00 0.00 0.00 84 1016.7
20260506061648 59 208 1.7 3.5 0.00 0.00 0.00 83 1016.6
20260506051348 59 189 0.9 2.6 0.00 0.00 0.00 83 1016.3
20260506050448 60 190 1.7 2.6 0.00 0.00 0.00 82 1016.2
20260506044648 60 175 2.6 4.3 0.00 0.00 0.00 82 1016.0
20260506043748 59 169 2.6 3.5 0.00 0.00 0.00 82 1015.9
20260506042849 59 159 1.7 2.6 0.00 0.00 0.00 83 1016.0
20260506041948 59 159 0.9 1.7 0.00 0.00 0.00 83 1015.8
20260506041048 59 158 0.0 1.7 0.00 0.00 0.00 83 1015.7
20260506035248 60 33 0.9 2.6 0.00 0.00 0.00 81 1015.6
20260506034349 61 17 0.9 0.9 0.00 0.00 0.00 80 1015.5
20260506033448 62 17 0.0 1.7 0.00 0.00 0.00 78 1015.4
20260506032548 62 18 0.9 1.7 0.00 0.00 0.00 76 1015.3
20260506030748 62 16 0.9 1.7 0.00 0.00 0.00 77 1015.2
20260506024948 61 12 0.9 2.6 0.00 0.00 0.00 77 1015.0
20260506024048 61 359 0.9 1.7 0.00 0.00 0.00 77 1015.0
20260506023148 61 308 0.9 2.6 0.00 0.00 0.00 79 1014.9
20260506022248 61 315 1.7 2.6 0.00 0.00 0.00 78 1014.8
20260506020448 61 335 1.7 3.5 0.00 0.00 0.00 78 1014.9
20260506014648 61 327 3.5 5.2 0.00 0.00 0.00 78 1015.0
20260506013748 61 323 3.5 5.2 0.00 0.00 0.00 78 1014.9
20260506012848 61 323 3.5 5.2 0.00 0.00 0.00 78 1014.9
20260506011948 61 323 3.5 5.2 0.00 0.00 0.00 78 1014.9
20260506011049 61 325 3.5 6.1 0.00 0.00 0.00 78 1014.8
20260506004348 61 327 3.5 6.1 0.00 0.00 0.00 77 1015.0
20260506003448 62 315 2.6 4.3 0.00 0.00 0.00 77 1015.0
20260506002548 61 322 2.6 5.2 0.00 0.00 0.00 77 1015.0
20260506001648 61 320 3.5 5.2 0.00 0.00 0.00 77 1015.1
20260505235848 61 329 4.3 6.1 0.00 0.00 0.00 76 1015.3
20260505234948 61 332 4.3 7.0 0.00 0.00 0.00 76 1015.3
20260505233148 62 308 3.5 6.1 0.00 0.00 0.00 75 1015.3
20260505231349 62 279 3.5 6.1 0.00 0.00 0.00 74 1015.4
20260505225548 62 323 4.3 7.0 0.00 0.00 0.00 75 1015.3
20260505224648 62 331 4.3 7.0 0.00 0.00 0.00 75 1015.4
20260505223748 62 326 3.5 6.1 0.00 0.00 0.00 76 1015.5
20260505222848 62 313 3.5 5.2 0.00 0.00 0.00 76 1015.5
20260505221948 61 324 4.3 7.0 0.00 0.00 0.00 78 1015.6
20260505215249 61 337 2.6 5.2 0.00 0.00 0.00 76 1015.6
20260505214348 61 326 3.5 6.1 0.00 0.00 0.00 76 1015.7
20260505210748 62 272 2.6 6.1 0.00 0.00 0.00 76 1016.0
20260505205848 61 318 1.7 4.3 0.00 0.00 0.00 77 1016.0
20260505204949 60 324 3.5 6.1 0.00 0.00 0.00 80 1016.2
20260505204048 60 335 2.6 5.2 0.00 0.00 0.00 79 1016.2
20260505203148 59 42 2.6 6.1 0.00 0.00 0.00 79 1016.3
20260505201348 59 358 2.6 5.2 0.00 0.00 0.00 80 1016.3
20260505200448 59 336 2.6 6.1 0.00 0.00 0.00 78 1016.3
20260505195548 60 8 1.7 4.3 0.00 0.00 0.00 78 1016.4
20260505194647 61 47 0.9 2.6 0.00 0.00 0.00 77 1016.3
20260505193747 60 259 0.9 2.6 0.00 0.00 0.00 78 1016.4
20260505192848 60 156 0.9 2.6 0.00 0.00 0.00 78 1016.5
20260505191948 59 270 0.9 3.5 0.00 0.00 0.00 81 1016.5
20260505190148 58 230 1.7 2.6 0.00 0.00 0.00 81 1016.4
20260505184348 58 240 2.6 4.3 0.00 0.00 0.00 81 1016.5
20260505182548 57 265 1.7 4.3 0.00 0.00 0.00 81 1016.5
20260505181648 58 239 1.7 3.5 0.00 0.00 0.00 82 1016.4
20260505180748 58 265 1.7 3.5 0.00 0.00 0.00 82 1016.4
20260505175847 57 272 1.7 3.5 0.00 0.00 0.00 82 1016.4
20260505174947 57 238 1.7 3.5 0.00 0.00 0.00 82 1016.4
20260505174047 57 230 2.6 5.2 0.00 0.00 0.00 82 1016.4
20260505173148 57 234 1.7 3.5 0.00 0.00 0.00 83 1016.3
20260505172248 57 236 1.7 4.3 0.00 0.00 0.00 83 1016.2
20260505171347 56 297 1.7 4.3 0.00 0.00 0.00 83 1016.2
20260505170447 56 244 1.7 4.3 0.00 0.00 0.00 84 1016.2
20260505164647 56 223 1.7 2.6 0.00 0.00 0.00 86 1016.1
20260505163749 56 198 1.7 3.5 0.00 0.00 0.00 87 1016.0
20260505162847 55 212 1.7 3.5 0.00 0.00 0.00 87 1016.0
20260505161947 55 223 1.7 3.5 0.00 0.00 0.00 88 1016.0
20260505160147 55 237 3.5 5.2 0.00 0.00 0.00 88 1016.0
20260505152547 54 224 3.5 6.1 0.00 0.00 0.00 89 1015.9
20260505151647 54 235 2.6 4.3 0.00 0.00 0.00 90 1015.8
20260505150747 54 231 2.6 4.3 0.00 0.00 0.00 90 1015.8
20260505140447 53 177 2.6 4.3 0.00 0.00 0.00 90 1015.1
20260505130148 54 227 3.5 5.2 0.00 0.00 0.00 87 1014.8
20260505124347 54 233 2.6 4.3 0.00 0.00 0.00 86 1014.7
20260505123447 54 239 2.6 4.3 0.00 0.00 0.00 86 1014.7
20260505122547 54 227 2.6 4.3 0.00 0.00 0.00 86 1014.7
20260505121647 54 227 3.5 6.1 0.00 0.00 0.00 86 1014.7
20260505120747 54 234 3.5 6.1 0.00 0.00 0.00 86 1014.6
20260505115847 54 226 4.3 7.0 0.00 0.00 0.00 85 1014.6
20260505114947 55 230 4.3 7.0 0.00 0.00 0.00 85 1014.6
20260505114047 54 235 3.5 7.0 0.00 0.00 0.00 86 1014.6
20260505113147 54 229 4.3 7.0 0.00 0.00 0.00 86 1014.6
20260505112247 55 227 4.3 6.1 0.00 0.00 0.00 85 1014.6
20260505111347 55 230 3.5 7.0 0.00 0.00 0.00 85 1014.6
20260505110448 55 231 2.6 6.1 0.00 0.00 0.00 85 1014.4
20260505101947 55 232 3.5 6.1 0.00 0.00 0.00 85 1014.0
20260505101047 55 229 4.3 7.0 0.00 0.00 0.00 84 1014.0
20260505095247 56 229 4.3 7.0 0.00 0.00 0.00 84 1013.9
20260505094347 56 235 4.3 7.0 0.00 0.00 0.00 84 1013.9
20260505093447 56 235 4.3 6.1 0.00 0.00 0.00 84 1013.8
20260505092547 56 232 4.3 7.8 0.00 0.00 0.00 84 1013.7
20260505091647 56 233 5.2 8.7 0.00 0.00 0.00 84 1013.6
20260505090747 56 230 5.2 7.8 0.00 0.00 0.00 84 1013.6
20260505084947 56 236 5.2 7.8 0.00 0.00 0.00 83 1013.5
20260505084047 56 237 5.2 9.6 0.00 0.00 0.00 82 1013.5
20260505082247 57 241 4.3 7.0 0.00 0.00 0.00 82 1013.4
20260505081347 57 239 5.2 8.7 0.00 0.00 0.00 82 1013.3
20260505075547 57 238 5.2 9.6 0.00 0.00 0.00 82 1013.2
20260505074647 58 233 3.5 6.1 0.00 0.00 0.00 81 1013.1
20260505073747 58 238 4.3 7.0 0.00 0.00 0.00 80 1012.9
20260505072847 58 231 4.3 7.0 0.00 0.00 0.00 80 1012.8
20260505071047 59 239 5.2 8.7 0.00 0.00 0.00 78 1012.5